Weather History for Wrangell, AK

Change the Weather History Date:

Friday, February 15, 2013

  Actual Average Record
Temperature  
Mean Temperature 44 °F -  
Max Temperature 48 °F 39 °F 48 °F (1991)
Min Temperature 39 °F 27 °F 3 °F (1954)
Degree Days  
Heating Degree Days 22    
Moisture  
Dew Point 38 °F    
Average Humidity 81    
Maximum Humidity 87    
Minimum Humidity 71    
Precipitation  
Precipitation 1.37 in - - ()
Sea Level Pressure  
Sea Level Pressure 29.94 in    
Wind  
Wind Speed 13 mph (SE)    
Max Wind Speed 21 mph    
Max Gust Speed 33 mph    
Visibility 8 miles    
Events      
Averages and records for this station are not official NWS values.
T = Trace of Precipitation, MM = Missing Value Source: NWS Daily Summary

Daily Weather History Graph

Daily Weather History Graph

Search for Another Location

Airport:

Trip Planner

Search our weather history database for the weather conditions in past years. The results will help you decide how hot, cold, wet, or windy it might be!

Date:

Astronomy

Feb. 15, 2013 Rise Set
Actual Time 7:15 AM AKST 4:53 PM AKST
Civil Twilight 6:35 AM AKST 5:32 PM AKST
Nautical Twilight 5:51 AM AKST 6:16 PM AKST
Astronomical Twilight 5:08 AM AKST 7:00 PM AKST
Moon 8:40 AM AKST (2/15) No Moon Set
Length of Visible Light 10h 56m
Length of Day
9h 38m
Waxing Crescent, 31% of the Moon is Illuminated
Feb 15
Waxing Crescent
Feb 17
First Quarter
Feb 25
Full
Mar 4
Last Quarter
Mar 11
New

Hourly Weather History & Observations

Time (AKST) Temp. Windchill Dew Point Humidity Pressure Visibility Wind Dir Wind Speed Gust Speed Precip Events Conditions
12:16 AM 42.8 °F 34.0 °F 37.4 °F 81% 30.00 in 5.0 mi SE 20.7 mph 28.8 mph 0.10 in   Overcast
12:36 AM 42.8 °F 34.3 °F 37.4 °F 81% 30.01 in 7.0 mi SE 19.6 mph 25.3 mph 0.18 in   Overcast
12:56 AM 42.8 °F 35.8 °F 37.4 °F 81% 30.02 in 4.0 mi South 13.8 mph 23.0 mph 0.23 in   Overcast
1:16 AM 44.6 °F 37.4 °F 39.2 °F 81% 30.02 in 5.0 mi SE 16.1 mph 20.7 mph 0.04 in   Overcast
1:36 AM 44.6 °F 39.2 °F 39.2 °F 81% 30.03 in 10.0 mi SSE 10.4 mph 17.3 mph 0.06 in   Overcast
1:56 AM 46.4 °F 40.4 °F 39.2 °F 76% 30.02 in 10.0 mi SE 13.8 mph 23.0 mph 0.08 in   Overcast
2:16 AM 44.6 °F 37.2 °F 39.2 °F 81% 30.00 in 9.0 mi ESE 17.3 mph 23.0 mph 0.02 in   Overcast
2:36 AM 46.4 °F 39.0 °F 39.2 °F 76% 29.98 in 10.0 mi SE 19.6 mph 27.6 mph 0.02 in   Overcast
2:56 AM 46.4 °F 39.0 °F 39.2 °F 76% 29.98 in 9.0 mi SE 19.6 mph 26.5 mph 0.02 in   Overcast
3:16 AM 46.4 °F 39.5 °F 39.2 °F 76% 29.97 in 10.0 mi SE 17.3 mph 23.0 mph 0.01 in   Overcast
3:36 AM 46.4 °F 39.2 °F 41.0 °F 81% 29.96 in 10.0 mi SE 18.4 mph 28.8 mph 0.02 in   Overcast
3:56 AM 46.4 °F 40.4 °F 39.2 °F 76% 29.97 in 9.0 mi ESE 13.8 mph 25.3 mph 0.03 in   Overcast
4:16 AM 46.4 °F 39.8 °F 41.0 °F 81% 29.96 in 9.0 mi ESE 16.1 mph 20.7 mph 0.02 in   Overcast
4:36 AM 46.4 °F 39.8 °F 41.0 °F 81% 29.95 in 10.0 mi SE 16.1 mph 25.3 mph 0.03 in   Overcast
4:56 AM 48.2 °F - 41.0 °F 76% 29.95 in 10.0 mi SSE 9.2 mph 26.5 mph 0.03 in   Overcast
5:16 AM 48.2 °F - 39.2 °F 71% 29.94 in 10.0 mi SE 15.0 mph 25.3 mph N/A   Overcast
5:36 AM 48.2 °F - 39.2 °F 71% 29.93 in 10.0 mi SE 17.3 mph 28.8 mph N/A   Overcast
5:56 AM 48.2 °F - 41.0 °F 76% 29.92 in 10.0 mi SE 17.3 mph 25.3 mph 0.01 in   Overcast
6:16 AM 46.4 °F 38.7 °F 39.2 °F 76% 29.91 in 10.0 mi ESE 20.7 mph 24.2 mph 0.02 in   Overcast
6:36 AM 46.4 °F 39.5 °F 39.2 °F 76% 29.91 in 10.0 mi ESE 17.3 mph 26.5 mph 0.04 in   Overcast
6:56 AM 46.4 °F 39.2 °F 39.2 °F 76% 29.91 in 10.0 mi SE 18.4 mph 25.3 mph 0.06 in   Overcast
7:16 AM 46.4 °F 39.5 °F 39.2 °F 76% 29.90 in 10.0 mi SE 17.3 mph 31.1 mph 0.04 in   Overcast
7:36 AM 46.4 °F 39.8 °F 39.2 °F 76% 29.90 in 7.0 mi SE 16.1 mph 25.3 mph 0.05 in   Overcast
7:56 AM 46.4 °F 38.7 °F 39.2 °F 76% 29.90 in 7.0 mi ESE 20.7 mph 29.9 mph 0.06 in   Overcast
8:16 AM 46.4 °F 40.4 °F 39.2 °F 76% 29.91 in 7.0 mi SE 13.8 mph 29.9 mph 0.01 in   Overcast
8:56 AM 46.4 °F 39.2 °F 39.2 °F 76% 29.91 in 5.0 mi SE 18.4 mph 33.4 mph 0.07 in   Overcast
9:16 AM 44.6 °F 38.8 °F 37.4 °F 76% 29.92 in 5.0 mi SE 11.5 mph 16.1 mph 0.04 in   Overcast
9:36 AM 44.6 °F 39.2 °F 37.4 °F 76% 29.92 in 5.0 mi ESE 10.4 mph 20.7 mph 0.08 in   Overcast
9:56 AM 44.6 °F 37.8 °F 37.4 °F 76% 29.91 in 5.0 mi ESE 15.0 mph 19.6 mph 0.10 in   Overcast
10:16 AM 44.6 °F 37.4 °F 37.4 °F 76% 29.91 in 5.0 mi ESE 16.1 mph 23.0 mph 0.05 in   Overcast
10:36 AM 44.6 °F 38.4 °F 39.2 °F 81% 29.91 in 5.0 mi ESE 12.7 mph 24.2 mph 0.08 in   Overcast
10:56 AM 44.6 °F 37.8 °F 39.2 °F 81% 29.90 in 5.0 mi ESE 15.0 mph 24.2 mph 0.11 in   Overcast
11:16 AM 44.6 °F 38.1 °F 39.2 °F 81% 29.91 in 5.0 mi ESE 13.8 mph - 0.03 in   Overcast
11:36 AM 44.6 °F 37.8 °F 39.2 °F 81% 29.90 in 5.0 mi ESE 15.0 mph 25.3 mph 0.07 in   Overcast
11:56 AM 44.6 °F 38.8 °F 39.2 °F 81% 29.90 in 5.0 mi ESE 11.5 mph 21.9 mph 0.09 in   Overcast
12:16 PM 44.6 °F 38.1 °F 39.2 °F 81% 29.90 in 5.0 mi ESE 13.8 mph - 0.03 in   Overcast
12:36 PM 44.6 °F 38.8 °F 39.2 °F 81% 29.90 in 5.0 mi ESE 11.5 mph 16.1 mph 0.06 in   Overcast
12:56 PM 44.6 °F 39.7 °F 39.2 °F 81% 29.90 in 5.0 mi SE 9.2 mph - 0.08 in   Overcast
1:16 PM 44.6 °F 38.8 °F 39.2 °F 81% 29.89 in 5.0 mi ESE 11.5 mph - 0.03 in   Overcast
1:36 PM 44.6 °F 39.7 °F 39.2 °F 81% 29.89 in 5.0 mi SE 9.2 mph - 0.07 in   Overcast
1:56 PM 44.6 °F 41.4 °F 39.2 °F 81% 29.90 in 5.0 mi SSE 5.8 mph - 0.11 in   Overcast
2:16 PM 44.6 °F - 39.2 °F 81% 29.91 in 5.0 mi Calm Calm - 0.06 in   Overcast
2:36 PM 44.6 °F 43.1 °F 39.2 °F 81% 29.91 in 5.0 mi ESE 3.5 mph - 0.13 in   Overcast
2:56 PM 44.6 °F 43.1 °F 39.2 °F 81% 29.91 in 7.0 mi SSW 3.5 mph - 0.15 in   Overcast
3:16 PM 42.8 °F 37.0 °F 39.2 °F 87% 29.90 in 7.0 mi ESE 10.4 mph - 0.04 in   Overcast
3:36 PM 42.8 °F 39.3 °F 39.2 °F 87% 29.90 in 7.0 mi NE 5.8 mph - 0.05 in   Overcast
3:56 PM 42.8 °F 37.5 °F 39.2 °F 87% 29.90 in 7.0 mi ENE 9.2 mph - 0.05 in   Overcast
4:16 PM 44.6 °F 43.1 °F 39.2 °F 81% 29.91 in 7.0 mi East 3.5 mph - N/A   Overcast
4:36 PM 44.6 °F 42.2 °F 37.4 °F 76% 29.92 in 7.0 mi WSW 4.6 mph - N/A   Overcast
4:56 PM 42.8 °F 41.1 °F 37.4 °F 81% 29.92 in 7.0 mi West 3.5 mph - N/A   Overcast
5:16 PM 42.8 °F 41.1 °F 37.4 °F 81% 29.93 in 5.0 mi West 3.5 mph - 0.01 in   Overcast
5:36 PM 42.8 °F 40.1 °F 37.4 °F 81% 29.93 in 9.0 mi West 4.6 mph - 0.01 in   Overcast
5:56 PM 42.8 °F 37.5 °F 35.6 °F 76% 29.93 in 9.0 mi WSW 9.2 mph - 0.03 in   Overcast
6:16 PM 41.0 °F 35.8 °F 35.6 °F 81% 29.93 in 9.0 mi West 8.1 mph - 0.03 in   Overcast
6:36 PM 41.0 °F 39.0 °F 35.6 °F 81% 29.94 in 9.0 mi SW 3.5 mph - 0.05 in   Overcast
6:56 PM 41.0 °F 38.0 °F 35.6 °F 81% 29.93 in 9.0 mi South 4.6 mph - 0.06 in   Overcast
7:16 PM 41.0 °F 37.1 °F 37.4 °F 87% 29.94 in 9.0 mi NNW 5.8 mph - N/A   Overcast
7:36 PM 41.0 °F - 35.6 °F 81% 29.94 in 9.0 mi Calm Calm - N/A   Overcast
7:56 PM 41.0 °F 38.0 °F 35.6 °F 81% 29.94 in 9.0 mi SSW 4.6 mph - N/A   Overcast
8:16 PM 39.2 °F 35.9 °F 35.6 °F 87% 29.95 in 9.0 mi South 4.6 mph - N/A   Overcast
8:36 PM 39.2 °F 34.2 °F 33.8 °F 81% 29.95 in 9.0 mi SW 6.9 mph - N/A   Overcast
8:56 PM 39.2 °F 37.0 °F 35.6 °F 87% 29.95 in 9.0 mi SSW 3.5 mph - N/A   Overcast
9:16 PM 39.2 °F - 35.6 °F 87% 29.96 in 9.0 mi Calm Calm - N/A   Overcast
9:36 PM 39.2 °F - 35.6 °F 87% 29.96 in 9.0 mi Calm Calm - N/A   Overcast
9:56 PM 39.2 °F - 35.6 °F 87% 29.96 in 10.0 mi Calm Calm - N/A   Overcast
10:16 PM 39.2 °F 35.9 °F 35.6 °F 87% 29.96 in 10.0 mi SE 4.6 mph - N/A   Overcast
10:36 PM 39.2 °F 35.9 °F 35.6 °F 87% 29.97 in 10.0 mi SE 4.6 mph - N/A   Overcast
10:56 PM 39.2 °F 37.0 °F 35.6 °F 87% 29.98 in 10.0 mi SE 3.5 mph - N/A   Overcast
11:16 PM 39.2 °F - 35.6 °F 87% 29.98 in 10.0 mi Calm Calm - N/A   Overcast
11:36 PM 39.2 °F 37.0 °F 35.6 °F 87% 29.98 in 10.0 mi East 3.5 mph - N/A   Overcast
11:56 PM 39.2 °F 35.0 °F 35.6 °F 87% 29.99 in 10.0 mi East 5.8 mph - N/A   Overcast